| time (UTC) | temp C | wind direction | speed KPH | gust KPH | rain 1hr cm | rain 24hr cm | rain mn cm | humidity % | barometer mb |
| 20260831025007 | 26 | 180 | 0.0 | 0.0 | 0.00 | 0.05 | 0.05 | 87 | 1016.9 |
| 20260831024507 | 26 | 180 | 0.0 | 0.0 | 0.00 | 0.05 | 0.05 | 87 | 1016.9 |
| 20260831023507 | 26 | 180 | 0.0 | 0.0 | 0.00 | 0.05 | 0.05 | 86 | 1017.2 |
| 20260831023008 | 26 | 180 | 0.0 | 0.0 | 0.00 | 0.05 | 0.05 | 86 | 1017.2 |
| 20260831022507 | 26 | 180 | 0.0 | 0.0 | 0.00 | 0.05 | 0.05 | 86 | 1017.2 |
| 20260831021507 | 26 | 135 | 0.0 | 0.0 | 0.00 | 0.05 | 0.05 | 86 | 1017.2 |
| 20260831021007 | 26 | 135 | 0.0 | 0.0 | 0.00 | 0.05 | 0.05 | 85 | 1017.2 |
| 20260831020508 | 26 | 135 | 0.0 | 0.0 | 0.00 | 0.05 | 0.05 | 85 | 1017.2 |
| 20260831020007 | 26 | 135 | 0.0 | 0.0 | 0.00 | 0.05 | 0.05 | 85 | 1017.2 |
| 20260831015507 | 26 | 135 | 0.0 | 0.0 | 0.00 | 0.05 | 0.05 | 85 | 1017.2 |
| 20260831014507 | 26 | 135 | 0.0 | 0.0 | 0.00 | 0.05 | 0.05 | 85 | 1017.2 |
| 20260831013507 | 26 | 112 | 0.0 | 0.0 | 0.00 | 0.05 | 0.05 | 85 | 1016.9 |
| 20260831013007 | 27 | 112 | 0.0 | 0.0 | 0.00 | 0.05 | 0.05 | 84 | 1016.9 |
| 20260831012007 | 27 | 112 | 0.0 | 0.0 | 0.00 | 0.05 | 0.05 | 83 | 1016.9 |
| 20260831011507 | 27 | 112 | 0.0 | 0.0 | 0.00 | 0.05 | 0.05 | 83 | 1016.9 |
| 20260831011008 | 27 | 112 | 1.6 | 1.6 | 0.00 | 0.05 | 0.05 | 83 | 1016.9 |
| 20260831010508 | 27 | 68 | 0.0 | 0.0 | 0.00 | 0.05 | 0.05 | 84 | 1016.9 |
| 20260831010007 | 27 | 68 | 0.0 | 0.0 | 0.00 | 0.05 | 0.05 | 84 | 1016.5 |
| 20260831005507 | 27 | 68 | 0.0 | 0.0 | 0.00 | 0.05 | 0.05 | 84 | 1016.8 |
| 20260831005007 | 27 | 68 | 3.2 | 4.8 | 0.00 | 0.05 | 0.05 | 83 | 1016.9 |
| 20260831004507 | 27 | 68 | 4.8 | 4.8 | 0.00 | 0.05 | 0.05 | 83 | 1016.9 |
| 20260831003508 | 27 | 68 | 1.6 | 1.6 | 0.00 | 0.05 | 0.05 | 82 | 1016.9 |
| 20260831003008 | 27 | 68 | 1.6 | 4.8 | 0.00 | 0.05 | 0.05 | 82 | 1016.9 |
| 20260831002507 | 27 | 90 | 4.8 | 4.8 | 0.00 | 0.05 | 0.05 | 81 | 1016.9 |
| 20260831001507 | 27 | 68 | 4.8 | 4.8 | 0.00 | 0.05 | 0.05 | 81 | 1016.9 |
| 20260831001007 | 27 | 45 | 4.8 | 4.8 | 0.00 | 0.05 | 0.05 | 80 | 1016.9 |
| 20260831000508 | 28 | 45 | 4.8 | 4.8 | 0.00 | 0.05 | 0.05 | 80 | 1016.9 |
| 20260831000008 | 28 | 74 | 8.0 | 8.0 | 0.00 | 0.05 | 0.05 | 80 | 1016.5 |
| 20260830235507 | 28 | 68 | 3.2 | 4.8 | 0.00 | 0.05 | 0.05 | 79 | 1016.5 |
| 20260830235007 | 28 | 90 | 0.0 | 0.0 | 0.00 | 0.05 | 0.05 | 79 | 1016.5 |
| 20260830233508 | 28 | 111 | 3.2 | 3.2 | 0.00 | 0.05 | 0.05 | 77 | 1016.2 |
| 20260830233007 | 28 | 135 | 3.2 | 3.2 | 0.00 | 0.05 | 0.05 | 77 | 1016.2 |
| 20260830232507 | 28 | 68 | 1.6 | 1.6 | 0.00 | 0.05 | 0.05 | 77 | 1016.2 |
| 20260830232008 | 28 | 90 | 3.2 | 4.8 | 0.00 | 0.05 | 0.05 | 77 | 1016.2 |
| 20260830231507 | 28 | 68 | 4.8 | 4.8 | 0.00 | 0.05 | 0.05 | 77 | 1016.2 |
| 20260830231007 | 28 | 68 | 3.2 | 4.8 | 0.00 | 0.05 | 0.05 | 77 | 1015.9 |
| 20260830230006 | 28 | 70 | 3.2 | 3.2 | 0.00 | 0.05 | 0.05 | 77 | 1015.9 |
| 20260830225507 | 28 | 112 | 0.0 | 1.6 | 0.00 | 0.05 | 0.05 | 77 | 1015.9 |
| 20260830225007 | 28 | 112 | 1.6 | 1.6 | 0.00 | 0.05 | 0.05 | 76 | 1015.9 |
| 20260830224507 | 28 | 112 | 1.6 | 1.6 | 0.00 | 0.05 | 0.05 | 76 | 1015.7 |
| 20260830224008 | 29 | 112 | 1.6 | 1.6 | 0.00 | 0.05 | 0.05 | 76 | 1015.9 |
| 20260830222507 | 29 | 68 | 0.0 | 0.0 | 0.00 | 0.05 | 0.05 | 75 | 1016.2 |
| 20260830221507 | 29 | 90 | 0.0 | 0.0 | 0.00 | 0.05 | 0.05 | 74 | 1016.2 |
| 20260830220507 | 30 | 90 | 3.2 | 3.2 | 0.00 | 0.05 | 0.05 | 73 | 1016.2 |
| 20260830215007 | 30 | 68 | 6.4 | 8.0 | 0.00 | 0.13 | 0.05 | 72 | 1016.2 |
| 20260830214507 | 30 | 68 | 3.2 | 8.0 | 0.00 | 0.13 | 0.05 | 72 | 1016.2 |
| 20260830214008 | 30 | 68 | 3.2 | 3.2 | 0.00 | 0.13 | 0.05 | 72 | 1016.2 |
| 20260830213507 | 30 | 68 | 3.2 | 8.0 | 0.00 | 0.18 | 0.05 | 71 | 1016.2 |
| 20260830212507 | 31 | 112 | 3.2 | 3.2 | 0.00 | 0.18 | 0.05 | 70 | 1016.2 |
| 20260830211507 | 31 | 112 | 3.2 | 3.2 | 0.00 | 0.18 | 0.05 | 69 | 1016.2 |
| 20260830211007 | 31 | 68 | 3.2 | 3.2 | 0.00 | 0.18 | 0.05 | 69 | 1016.2 |
| 20260830210507 | 32 | 112 | 0.0 | 8.0 | 0.00 | 0.18 | 0.05 | 68 | 1016.2 |
| 20260830210007 | 32 | 68 | 1.6 | 8.0 | 0.00 | 0.18 | 0.05 | 67 | 1016.2 |
| 20260830205506 | 32 | 68 | 3.2 | 3.2 | 0.00 | 0.18 | 0.05 | 67 | 1015.9 |
| 20260830204507 | 33 | 92 | 3.2 | 4.8 | 0.00 | 0.18 | 0.05 | 66 | 1015.9 |
| 20260830204007 | 33 | 90 | 1.6 | 1.6 | 0.00 | 0.18 | 0.05 | 66 | 1015.9 |
| 20260830203507 | 33 | 68 | 1.6 | 1.6 | 0.00 | 0.18 | 0.05 | 66 | 1016.0 |
| 20260830203007 | 33 | 68 | 1.6 | 1.6 | 0.00 | 0.18 | 0.05 | 66 | 1016.2 |
| 20260830202506 | 33 | 45 | 0.0 | 3.2 | 0.00 | 0.18 | 0.05 | 67 | 1016.1 |
| 20260830202007 | 33 | 112 | 4.8 | 4.8 | 0.00 | 0.18 | 0.05 | 67 | 1015.9 |
| 20260830201507 | 33 | 90 | 4.8 | 4.8 | 0.00 | 0.18 | 0.05 | 68 | 1015.9 |
| 20260830201007 | 33 | 68 | 3.2 | 3.2 | 0.00 | 0.18 | 0.05 | 68 | 1015.9 |
| 20260830200007 | 33 | 68 | 3.2 | 3.2 | 0.00 | 0.18 | 0.05 | 68 | 1016.2 |
| 20260830194007 | 33 | 338 | 3.2 | 3.2 | 0.00 | 0.18 | 0.05 | 70 | 1016.2 |
| 20260830193507 | 32 | 338 | 8.0 | 9.7 | 0.00 | 0.18 | 0.05 | 70 | 1016.5 |
| 20260830193006 | 32 | 45 | 9.7 | 9.7 | 0.00 | 0.18 | 0.05 | 71 | 1016.5 |
| 20260830192507 | 32 | 45 | 9.7 | 9.7 | 0.00 | 0.18 | 0.05 | 70 | 1016.9 |
| 20260830192006 | 32 | 0 | 4.8 | 4.8 | 0.00 | 0.18 | 0.05 | 70 | 1016.6 |
| 20260830191507 | 32 | 0 | 4.8 | 4.8 | 0.00 | 0.18 | 0.05 | 69 | 1016.9 |
| 20260830191007 | 32 | 0 | 4.8 | 4.8 | 0.00 | 0.18 | 0.05 | 69 | 1016.9 |
| 20260830190507 | 32 | 68 | 4.8 | 4.8 | 0.00 | 0.18 | 0.05 | 71 | 1016.9 |
| 20260830190006 | 32 | 88 | 0.0 | 4.8 | 0.00 | 0.18 | 0.05 | 71 | 1016.9 |
| 20260830185007 | 31 | 90 | 0.0 | 0.0 | 0.00 | 0.18 | 0.05 | 73 | 1017.0 |
| 20260830184507 | 30 | 90 | 0.0 | 0.0 | 0.00 | 0.18 | 0.05 | 75 | 1016.9 |
| 20260830184006 | 30 | 90 | 1.6 | 3.2 | 0.00 | 0.18 | 0.05 | 75 | 1016.9 |
| 20260830183508 | 30 | 68 | 0.0 | 0.0 | 0.00 | 0.18 | 0.05 | 75 | 1017.2 |
| 20260830183006 | 30 | 68 | 0.0 | 8.0 | 0.00 | 0.18 | 0.05 | 76 | 1017.2 |
| 20260830182507 | 30 | 315 | 8.0 | 8.0 | 0.00 | 0.18 | 0.05 | 76 | 1017.2 |
| 20260830182006 | 29 | 315 | 4.8 | 8.0 | 0.00 | 0.18 | 0.05 | 77 | 1017.2 |
| 20260830181507 | 28 | 315 | 3.2 | 3.2 | 0.00 | 0.18 | 0.05 | 78 | 1017.2 |
| 20260830181007 | 28 | 315 | 3.2 | 3.2 | 0.00 | 0.18 | 0.05 | 79 | 1017.6 |
| 20260830180506 | 28 | 225 | 0.0 | 0.0 | 0.00 | 0.18 | 0.05 | 82 | 1017.6 |
| 20260830180006 | 27 | 225 | 0.0 | 0.0 | 0.00 | 0.18 | 0.05 | 83 | 1017.6 |
| 20260830175506 | 27 | 225 | 0.0 | 0.0 | 0.00 | 0.18 | 0.05 | 84 | 1017.6 |
| 20260830175006 | 27 | 225 | 0.0 | 0.0 | 0.00 | 0.18 | 0.05 | 84 | 1017.6 |
| 20260830174507 | 26 | 225 | 0.0 | 0.0 | 0.00 | 0.18 | 0.05 | 84 | 1017.6 |
| 20260830174006 | 26 | 225 | 0.0 | 0.0 | 0.00 | 0.18 | 0.05 | 84 | 1017.6 |
| 20260830173507 | 26 | 225 | 0.0 | 0.0 | 0.00 | 0.18 | 0.05 | 84 | 1017.6 |
| 20260830173006 | 26 | 225 | 0.0 | 0.0 | 0.00 | 0.18 | 0.05 | 85 | 1017.6 |
| 20260830172007 | 26 | 225 | 0.0 | 3.2 | 0.00 | 0.18 | 0.05 | 85 | 1017.6 |
| 20260830171506 | 26 | 225 | 3.2 | 4.8 | 0.00 | 0.18 | 0.05 | 85 | 1017.6 |
| 20260830171007 | 26 | 225 | 1.6 | 4.8 | 0.00 | 0.18 | 0.05 | 85 | 1017.6 |
| 20260830170507 | 26 | 68 | 0.0 | 0.0 | 0.00 | 0.18 | 0.05 | 87 | 1017.9 |
| 20260830170006 | 26 | 68 | 0.0 | 0.0 | 0.00 | 0.18 | 0.05 | 88 | 1017.9 |
| 20260830165506 | 26 | 68 | 0.0 | 0.0 | 0.05 | 0.18 | 0.05 | 88 | 1017.9 |
| 20260830165007 | 26 | 68 | 0.0 | 0.0 | 0.05 | 0.18 | 0.05 | 89 | 1018.2 |
| 20260830164507 | 25 | 68 | 0.0 | 0.0 | 0.05 | 0.18 | 0.05 | 89 | 1017.9 |
| 20260830164007 | 25 | 68 | 0.0 | 0.0 | 0.05 | 0.18 | 0.05 | 89 | 1018.0 |
| 20260830163506 | 25 | 68 | 0.0 | 0.0 | 0.05 | 0.18 | 0.05 | 89 | 1017.9 |
| 20260830163007 | 25 | 181 | 0.0 | 0.0 | 0.05 | 0.18 | 0.05 | 89 | 1017.9 |
| 20260830162507 | 25 | 181 | 0.0 | 0.0 | 0.05 | 0.18 | 0.05 | 89 | 1017.9 |
| 20260830162006 | 25 | 181 | 0.0 | 0.0 | 0.05 | 0.18 | 0.05 | 90 | 1017.9 |
| 20260830161507 | 25 | 181 | 0.0 | 0.0 | 0.05 | 0.18 | 0.05 | 90 | 1018.2 |
| 20260830161007 | 25 | 181 | 0.0 | 0.0 | 0.05 | 0.18 | 0.05 | 90 | 1018.6 |
| 20260830160506 | 25 | 180 | 0.0 | 0.0 | 0.05 | 0.18 | 0.05 | 90 | 1018.6 |
| 20260830160006 | 25 | 180 | 0.0 | 0.0 | 0.05 | 0.18 | 0.05 | 90 | 1018.6 |
| 20260830155506 | 25 | 180 | 0.0 | 0.0 | 0.00 | 0.13 | 0.00 | 91 | 1018.2 |
| 20260830155007 | 25 | 180 | 0.0 | 0.0 | 0.00 | 0.13 | 0.00 | 91 | 1018.6 |
| 20260830154506 | 25 | 180 | 0.0 | 0.0 | 0.00 | 0.13 | 0.00 | 91 | 1018.6 |
| 20260830154007 | 25 | 180 | 0.0 | 0.0 | 0.00 | 0.13 | 0.00 | 90 | 1018.6 |
| 20260830153508 | 24 | 180 | 0.0 | 0.0 | 0.00 | 0.13 | 0.00 | 90 | 1018.6 |
| 20260830152507 | 24 | 180 | 0.0 | 0.0 | 0.00 | 0.13 | 0.00 | 90 | 1018.7 |
| 20260830152006 | 24 | 180 | 0.0 | 0.0 | 0.00 | 0.13 | 0.00 | 90 | 1018.9 |
| 20260830151506 | 24 | 180 | 0.0 | 1.6 | 0.00 | 0.13 | 0.00 | 88 | 1018.9 |
| 20260830151006 | 24 | 158 | 1.6 | 1.6 | 0.00 | 0.13 | 0.00 | 88 | 1018.9 |
| 20260830145507 | 25 | 158 | 1.6 | 1.6 | 0.00 | 0.13 | 0.00 | 89 | 1019.3 |
| 20260830145007 | 25 | 180 | 0.0 | 0.0 | 0.00 | 0.13 | 0.00 | 88 | 1018.6 |
| 20260830144507 | 25 | 180 | 0.0 | 0.0 | 0.00 | 0.13 | 0.00 | 88 | 1018.2 |
| 20260830144006 | 25 | 180 | 0.0 | 0.0 | 0.00 | 0.13 | 0.00 | 88 | 1018.6 |
| 20260830143506 | 25 | 177 | 0.0 | 0.0 | 0.00 | 0.13 | 0.00 | 88 | 1018.6 |
| 20260830143007 | 25 | 135 | 0.0 | 0.0 | 0.00 | 0.13 | 0.00 | 89 | 1018.6 |
| 20260830142513 | 26 | 135 | 0.0 | 0.0 | 0.00 | 0.13 | 0.00 | 93 | 1017.2 |